Waarnemingen

Advertentie
Mijn weer
Vlieland, Nederland (6242): temperatuur & dauwpunt: 21.04.2018 08:00:00 - 27.04.2018 08:00:00 (CEST)Vlieland, Nederland (6242): temperatuur 5cm: 21.04.2018 08:00:00 - 27.04.2018 08:00:00 (CEST)Vlieland, Nederland (6242): windsnelheid & windstoten: 21.04.2018 08:00:00 - 27.04.2018 08:00:00 (CEST)Vlieland, Nederland (6242): windrichting: 21.04.2018 08:00:00 - 27.04.2018 08:00:00 (CEST)Vlieland, Nederland (6242): luchtdruk: 21.04.2018 08:00:00 - 27.04.2018 08:00:00 (CEST)Vlieland, Nederland (6242): zicht: 21.04.2018 08:00:00 - 27.04.2018 08:00:00 (CEST)
Datum & Tijd tt [°C] td [°C] tt 5cm [°C] ff [km/u] ff [kn] fx [km/u] fx [kn] dd ppp [hPa] vv [km]
27.04.2018 08:00:00 8,7 8,1 8,2 15 8 18 10 ZZW 1012,1 9
27.04.2018 07:00:00 7,4 7,1 6,4 13 7 18 10 ZZW 1012,2 7
27.04.2018 06:00:00 7,4 7,1 6,3 16 9 22 12 ZZW 1012,5 7
27.04.2018 05:00:00 7,9 7,3 6,3 22 12 25 14 ZW 1012,7 7
27.04.2018 04:00:00 7,7 7,1 6,5 15 8 25 14 ZW 1012,9 7
27.04.2018 03:00:00 8,2 7,5 7,3 24 13 29 16 WZW 1013,2 8
27.04.2018 02:00:00 8,5 7,5 7,6 28 15 32 18 ZW 1013,8 10
27.04.2018 01:00:00 8,7 7,2 7,8 29 16 36 19 ZW 1013,7 10
27.04.2018 00:00:00 9,1 7,2 8,0 28 15 36 19 ZW 1013,9 10
26.04.2018 23:00:00 9,2 7,3 8,4 28 15 40 21 ZW 1014,0 10
26.04.2018 22:00:00 8,7 6,6 7,3 24 13 58 31 WZW 1014,4 10
26.04.2018 21:00:00 9,5 7,1 9,0 34 18 43 23 ZW 1014,4 10
26.04.2018 20:00:00 9,6 6,7 9,5 41 22 47 25 ZW 1014,0 10
26.04.2018 19:00:00 10,2 6,5 11,0 39 21 47 25 ZW 1014,0 10
26.04.2018 18:00:00 11,0 7,1 11,5 41 22 50 27 ZW 1013,9 10
26.04.2018 17:00:00 10,6 6,4 12,6 42 23 50 27 WZW 1014,2 10
26.04.2018 16:00:00 10,6 6,2 12,4 42 23 54 29 WZW 1014,4 10
26.04.2018 15:00:00 11,2 6,4 14,1 42 23 50 27 WZW 1014,1 10
26.04.2018 14:00:00 11,1 6,4 13,9 42 23 50 27 WZW 1013,9 10
26.04.2018 13:00:00 11,0 6,6 14,0 41 22 47 25 WZW 1013,4 10
26.04.2018 12:00:00 10,9 6,7 13,3 42 23 50 27 W 1013,0 10
26.04.2018 11:00:00 10,6 6,8 12,8 41 22 50 27 W 1012,4 10
26.04.2018 10:00:00 10,0 6,6 11,7 41 22 50 27 W 1012,1 10
26.04.2018 09:00:00 9,3 6,4 10,2 39 21 50 27 W 1011,4 10
26.04.2018 08:00:00 8,8 6,2 8,7 39 21 50 27 W 1010,8 10
26.04.2018 07:00:00 8,4 6,4 7,7 37 20 43 23 W 1010,2 10
26.04.2018 06:00:00 8,5 6,2 8,0 39 21 50 27 W 1009,9 10
26.04.2018 05:00:00 8,4 6,5 7,8 37 20 47 25 W 1009,6 10
26.04.2018 04:00:00 8,5 6,2 8,2 35 19 43 23 W 1009,4 10
26.04.2018 03:00:00 8,5 6,2 8,1 34 18 43 23 W 1009,4 10
26.04.2018 02:00:00 8,7 6,1 8,4 34 18 40 21 WZW 1009,4 10
26.04.2018 01:00:00 8,7 6,1 8,4 35 19 43 23 WZW 1009,5 10
26.04.2018 00:00:00 8,9 6,4 8,4 31 17 40 21 WZW 1009,5 10
25.04.2018 23:00:00 9,2 7,5 8,8 31 17 36 19 ZW 1009,6 10
25.04.2018 22:00:00 9,3 6,3 8,6 29 16 36 19 ZW 1009,4 10
25.04.2018 21:00:00 9,1 7,2 8,6 34 18 43 23 WZW 1009,2 10
25.04.2018 20:00:00 9,7 7,6 9,6 29 16 40 21 ZW 1009,4 10
25.04.2018 19:00:00 10,3 7,1 10,6 29 16 36 19 WZW 1009,6 10
25.04.2018 18:00:00 10,6 7,6 11,3 29 16 36 19 WZW 1009,9 10
25.04.2018 17:00:00 10,3 6,7 12,1 35 19 - - WZW 1010,3 10
25.04.2018 16:00:00 10,8 7,9 12,0 35 19 47 25 WZW 1010,3 10
25.04.2018 15:00:00 10,8 7,9 13,0 35 19 43 23 WZW 1010,2 10
25.04.2018 14:00:00 10,4 8,0 12,5 31 17 - - WZW 1010,0 10
25.04.2018 13:00:00 10,5 8,1 12,6 29 16 36 19 WZW 1010,0 10
25.04.2018 12:00:00 10,0 8,1 11,6 24 13 32 18 W 1009,7 10
25.04.2018 11:00:00 8,5 7,5 8,9 24 13 36 19 WNW 1009,0 10
25.04.2018 10:00:00 7,7 6,7 8,3 29 16 40 21 WNW 1008,4 7
25.04.2018 09:00:00 7,6 6,7 7,8 34 18 43 23 WNW 1007,8 10
25.04.2018 08:00:00 8,1 7,4 8,2 35 19 43 23 W 1006,6 10
25.04.2018 07:00:00 8,4 7,2 7,8 29 16 58 31 NW 1004,8 10
25.04.2018 06:00:00 8,2 7,5 8,1 48 26 68 37 W 1003,1 10
25.04.2018 05:00:00 10,2 9,4 9,9 55 30 68 37 WZW 1001,3 7
25.04.2018 04:00:00 10,1 9,8 10,0 52 28 61 33 ZW 1002,0 7
25.04.2018 03:00:00 10,1 9,6 10,0 52 28 61 33 ZW 1002,7 6
25.04.2018 02:00:00 10,3 9,5 10,0 46 25 58 31 ZW 1003,4 9
25.04.2018 01:00:00 10,1 9,5 9,8 48 26 61 33 ZW 1004,2 7
25.04.2018 00:00:00 10,2 9,8 10,1 46 25 54 29 ZW 1005,6 10
24.04.2018 23:00:00 10,2 9,7 9,9 37 20 50 27 ZZW 1007,2 5
24.04.2018 22:00:00 9,9 9,5 9,6 24 13 32 18 Z 1008,9 4,2
24.04.2018 21:00:00 9,3 8,9 8,9 16 9 25 14 ZZW 1010,3 8
24.04.2018 20:00:00 8,9 7,9 8,9 13 7 25 14 WZW 1011,2 10
24.04.2018 19:00:00 9,1 8,4 9,0 22 12 36 19 ZW 1011,9 10
24.04.2018 18:00:00 9,7 8,9 10,0 29 16 36 19 WZW 1012,7 8
24.04.2018 17:00:00 10,0 9,0 10,8 31 17 40 21 WZW 1013,2 8
24.04.2018 16:00:00 11,3 8,7 12,4 35 19 40 21 WZW 1013,5 10
24.04.2018 15:00:00 12,0 8,7 14,8 34 18 43 23 WZW 1013,6 10
24.04.2018 14:00:00 12,6 9,1 15,5 34 18 43 23 WZW 1013,6 10
24.04.2018 13:00:00 12,3 9,0 14,2 35 19 47 25 WZW 1013,6 10
24.04.2018 12:00:00 11,8 8,9 13,4 41 22 50 27 WZW 1013,5 10
24.04.2018 11:00:00 11,0 8,8 12,1 35 19 43 23 WZW 1012,9 10
24.04.2018 10:00:00 10,4 8,5 10,8 37 20 47 25 WZW 1013,0 10
24.04.2018 09:00:00 10,2 8,4 10,4 39 21 47 25 WZW 1012,4 10
24.04.2018 08:00:00 10,1 8,3 10,2 39 21 47 25 WZW 1011,9 10
24.04.2018 07:00:00 9,8 8,1 9,6 41 22 54 29 ZW 1011,2 9
24.04.2018 06:00:00 9,8 8,0 9,7 41 22 47 25 WZW 1011,3 9
24.04.2018 05:00:00 10,0 8,1 10,0 39 21 50 27 WZW 1011,4 10
24.04.2018 04:00:00 9,8 8,2 9,8 39 21 50 27 WZW 1011,4 9
24.04.2018 03:00:00 9,7 8,3 9,7 42 23 50 27 ZW 1011,3 9
24.04.2018 02:00:00 9,7 8,2 9,7 42 23 50 27 ZW 1012,1 8
24.04.2018 01:00:00 9,6 8,2 9,3 41 22 50 27 ZW 1012,4 8
24.04.2018 00:00:00 9,3 7,7 8,8 39 21 50 27 ZW 1012,9 10
23.04.2018 23:00:00 9,6 7,7 9,2 37 20 47 25 ZW 1013,5 10
23.04.2018 22:00:00 10,1 7,8 9,2 34 18 43 23 ZW 1014,0 10
23.04.2018 21:00:00 9,5 7,8 8,7 29 16 36 19 ZW 1014,2 10
23.04.2018 20:00:00 9,9 7,9 9,8 29 16 40 21 ZW 1014,5 14
23.04.2018 19:00:00 10,7 7,6 11,7 29 16 40 21 ZW 1014,9 10
23.04.2018 18:00:00 11,3 7,6 12,5 32 18 40 21 WZW 1015,0 15
23.04.2018 17:00:00 12,1 7,8 14,1 32 18 43 23 WZW 1015,2 12
23.04.2018 16:00:00 11,4 7,6 13,7 32 18 43 23 WZW 1015,0 16
23.04.2018 15:00:00 12,1 7,7 14,8 36 19 43 23 WZW 1015,0 17
23.04.2018 14:00:00 12,0 7,9 15,4 34 18 40 21 WZW 1014,6 10
23.04.2018 13:00:00 11,8 7,8 15,0 32 18 40 21 W 1014,2 16
23.04.2018 12:00:00 11,6 7,9 14,6 32 18 40 21 W 1013,8 19
23.04.2018 11:00:00 12,1 8,3 14,0 32 18 40 21 W 1013,4 20
23.04.2018 10:00:00 11,3 7,6 13,2 31 17 36 19 W 1012,8 10
23.04.2018 09:00:00 10,7 7,7 11,6 29 16 32 18 WZW 1012,2 11
23.04.2018 08:00:00 10,0 8,3 9,7 22 12 25 14 WZW 1011,3 6
23.04.2018 07:00:00 8,9 8,3 8,0 18 10 29 16 W 1010,8 3,9
23.04.2018 06:00:00 9,0 8,4 8,4 24 13 32 18 WNW 1010,4 4,4
23.04.2018 05:00:00 9,1 8,4 8,6 18 10 32 18 W 1009,7 3,8
23.04.2018 04:00:00 10,0 8,9 10,1 25 14 32 18 W 1009,5 5
23.04.2018 03:00:00 10,4 8,9 10,4 26 14 29 16 WZW 1008,8 5
23.04.2018 02:00:00 10,5 9,2 10,1 21 11 25 14 WZW 1008,5 5
23.04.2018 01:00:00 10,2 8,9 9,7 21 11 25 14 ZW 1008,5 7
23.04.2018 00:00:00 10,4 8,6 9,5 16 9 25 14 ZW 1008,5 8
22.04.2018 23:00:00 11,0 8,5 10,5 24 13 43 23 WZW 1008,1 10
22.04.2018 22:00:00 12,9 8,2 12,4 34 18 40 21 ZW 1007,7 10
22.04.2018 21:00:00 15,0 10,4 14,2 22 12 36 19 ZZW 1007,6 10
22.04.2018 20:00:00 15,6 10,8 15,3 32 18 40 21 ZW 1007,2 11
22.04.2018 19:00:00 17,5 11,6 18,4 29 16 36 19 ZW 1007,3 9
22.04.2018 18:00:00 18,8 11,7 20,2 29 16 36 19 WZW 1007,8 8
22.04.2018 17:00:00 20,6 11,5 21,9 29 16 36 19 ZW 1008,4 12
22.04.2018 16:00:00 20,4 12,4 22,7 21 11 25 14 ZZO 1008,7 10
22.04.2018 15:00:00 19,2 12,2 21,9 21 11 29 16 ZZO 1009,3 10
22.04.2018 14:00:00 18,1 11,9 20,7 22 12 29 16 ZZO 1010,0 10
22.04.2018 13:00:00 18,8 11,6 20,8 22 12 29 16 ZO 1010,6 10
22.04.2018 12:00:00 17,4 11,4 19,7 18 10 29 16 ZO 1011,4 10
22.04.2018 11:00:00 15,8 10,0 16,6 18 10 25 14 OZO 1012,3 10
22.04.2018 10:00:00 14,0 9,1 15,4 21 11 29 16 ZO 1012,7 10
22.04.2018 09:00:00 12,5 8,8 12,6 22 12 29 16 ZO 1013,3 10
22.04.2018 08:00:00 12,2 8,6 12,3 21 11 29 16 ZO 1013,9 10
22.04.2018 07:00:00 11,0 8,2 10,4 22 12 32 18 ZO 1014,1 36
22.04.2018 06:00:00 11,3 8,2 10,8 26 14 32 18 ZO 1014,5 10
22.04.2018 05:00:00 11,8 8,0 11,2 29 16 40 21 ZO 1015,7 41
22.04.2018 04:00:00 11,7 8,2 11,0 29 16 36 19 OZO 1016,3 30
22.04.2018 03:00:00 11,7 8,7 11,1 28 15 36 19 OZO 1016,9 10
22.04.2018 02:00:00 12,0 8,0 11,4 28 15 40 21 OZO 1017,8 10
22.04.2018 01:00:00 12,0 7,5 11,3 29 16 40 21 OZO 1018,3 10
22.04.2018 00:00:00 12,0 7,6 11,0 28 15 36 19 O 1018,9 10
21.04.2018 23:00:00 11,6 7,5 10,6 26 14 32 18 O 1019,5 10
21.04.2018 22:00:00 11,8 8,6 11,0 24 13 29 16 O 1019,8 10
21.04.2018 21:00:00 12,3 8,6 11,7 22 12 29 16 ONO 1020,1 10
21.04.2018 20:00:00 13,5 8,4 13,1 25 14 29 16 O 1020,5 44
21.04.2018 19:00:00 14,6 6,8 14,6 18 10 25 14 NO 1020,8 39
21.04.2018 18:00:00 15,5 7,3 16,1 22 12 25 14 NNO 1021,5 41
21.04.2018 17:00:00 16,0 6,6 17,8 22 12 25 14 NNO 1021,9 41
21.04.2018 16:00:00 15,7 6,8 17,8 18 10 22 12 NNO 1022,7 32
21.04.2018 15:00:00 15,2 5,9 18,3 15 8 18 10 NNO 1023,3 10
21.04.2018 14:00:00 13,7 7,2 17,0 16 9 22 12 NNO 1023,6 10
21.04.2018 13:00:00 12,6 8,4 16,1 16 9 22 12 N 1024,1 10
21.04.2018 12:00:00 12,4 8,7 15,3 13 7 18 10 NNO 1024,5 10
21.04.2018 11:00:00 10,7 8,0 14,3 13 7 18 10 N 1024,4 10
21.04.2018 10:00:00 10,8 8,0 13,2 13 7 14 8 N 1024,2 10
21.04.2018 09:00:00 9,9 7,8 11,5 13 7 18 10 N 1024,0 10
21.04.2018 08:00:00 8,9 8,1 8,9 15 8 22 12 N 1023,7 9

tt = temperatuur
td = dauwpunt
tt 5cm = temperatuur 5cm
ff = windsnelheid
fx = windstoten
dd = windrichting
ppp = luchtdruk
vv = zicht

Weerstations in de omgeving